period_start,C,m1,H,J0,J1,J2,J3,J4,J5,JA,JB,JC,JD,JJ,JK,JN,#
2018-02-19 00:04:18,0.08,5.58,0.00,25.44,28.43,31.73,13.88,52.95,1023.91,2017.97,1724.84,1997.41,2198.99,599.83,595.34,54.74,0000 0000 0000 0000 000000
2018-02-19 00:09:19,0.02,5.58,0.00,25.42,28.46,31.75,14.00,53.08,1023.93,2017.75,1724.00,1996.97,2198.25,599.98,595.45,54.79,0000 0000 0000 0000 000000
2018-02-19 00:14:21,0.05,5.58,0.00,25.42,28.48,31.78,14.05,53.17,1023.94,2017.37,1723.14,1996.28,2197.75,600.40,595.86,54.84,0000 0000 0000 0000 000000
2018-02-19 00:19:22,0.04,5.58,0.00,25.42,28.51,31.80,13.96,53.11,1023.93,2017.09,1722.32,1995.97,2197.04,599.97,595.43,54.89,0000 0000 0000 0000 000000
2018-02-19 00:24:24,0.11,5.59,0.00,25.41,28.53,31.86,14.00,53.29,1023.93,2017.02,1721.38,1995.22,2196.42,600.36,595.90,54.94,0000 0000 0000 0000 000000
2018-02-19 00:29:25,0.03,5.59,0.00,25.41,28.56,31.87,13.98,53.27,1023.94,2017.00,1720.69,1994.96,2195.95,599.78,595.27,55.00,0000 0000 0000 0000 000000
2018-02-19 00:34:26,0.09,5.60,0.00,25.38,28.59,31.90,14.02,53.17,1023.93,2017.00,1720.01,1994.27,2195.14,600.03,595.59,55.05,0000 0000 0000 0000 000000
2018-02-19 00:39:28,0.06,5.60,0.00,25.36,28.61,31.94,13.99,53.27,1023.93,2017.00,1719.22,1993.98,2194.74,599.87,595.50,55.10,0000 0000 0000 0000 000000
2018-02-19 00:44:29,0.09,5.60,0.00,25.35,28.64,31.96,13.92,53.27,1023.94,2016.99,1718.46,1993.31,2194.03,599.78,595.55,55.15,0000 0000 0000 0000 000000
2018-02-19 00:49:30,0.05,5.61,0.00,25.35,28.66,31.98,14.01,53.37,1023.92,2016.96,1717.73,1993.00,2193.56,600.01,595.65,55.20,0000 0000 0000 0000 000000
2018-02-19 00:54:31,0.05,5.61,0.00,25.34,28.69,32.01,14.03,53.33,1023.87,2016.78,1716.98,1992.44,2193.01,600.15,595.75,55.25,0000 0000 0000 0000 000000
2018-02-19 00:59:32,0.01,5.61,0.00,25.32,28.71,32.03,14.02,53.39,1023.74,2016.37,1716.16,1992.01,2192.36,600.07,595.62,55.30,0000 0000 0000 0000 000000
2018-02-19 01:04:34,0.06,5.61,0.00,25.30,28.73,32.03,14.03,53.41,1023.56,2016.12,1715.28,1991.66,2191.98,600.13,595.62,55.35,0000 0000 0000 0000 000000
2018-02-19 01:09:35,0.07,5.62,0.00,25.30,28.75,32.04,13.99,53.45,1023.49,2016.05,1714.59,1991.02,2191.26,599.92,595.42,55.40,0000 0000 0000 0000 000000
2018-02-19 01:14:36,0.05,5.62,0.00,25.28,28.77,32.05,14.15,53.45,1023.46,2016.02,1713.72,1990.71,2190.93,600.21,595.67,55.45,0000 0000 0000 0000 000000
2018-02-19 01:19:38,0.07,5.62,0.00,25.27,28.78,32.06,14.07,53.53,1023.46,2016.01,1713.02,1990.05,2190.17,600.20,595.75,55.50,0000 0000 0000 0000 000000
2018-02-19 01:24:39,0.04,5.63,0.00,25.26,28.80,32.08,14.00,53.59,1023.45,2016.00,1712.34,1989.99,2189.98,599.94,595.60,55.55,0000 0000 0000 0000 000000
2018-02-19 01:29:40,0.06,5.63,0.00,25.24,28.81,32.07,14.05,53.48,1023.45,2016.00,1711.93,1989.69,2189.33,600.14,595.60,55.60,0000 0000 0000 0000 000000
2018-02-19 01:34:42,0.06,5.63,0.00,25.23,28.82,32.08,14.00,53.47,1023.25,2016.00,1711.12,1989.07,2189.00,599.80,595.24,55.65,0000 0000 0000 0000 000000
2018-02-19 01:39:42,0.05,5.63,0.00,25.21,28.82,32.07,14.06,53.48,1023.06,2016.00,1710.46,1988.99,2188.67,600.14,595.46,55.70,0000 0000 0000 0000 000000
2018-02-19 01:44:44,0.03,5.64,0.00,25.20,28.84,32.08,14.14,53.50,1023.07,2016.00,1709.92,1988.82,2188.04,600.55,595.84,55.75,0000 0000 0000 0000 000000
2018-02-19 01:49:45,0.07,5.64,0.00,25.17,28.85,32.06,14.02,53.53,1023.00,2016.00,1709.09,1988.13,2187.95,599.76,595.30,55.80,0000 0000 0000 0000 000000
2018-02-19 01:54:46,0.06,5.64,0.00,25.16,28.85,32.06,14.10,53.48,1022.97,2015.99,1708.54,1988.00,2187.29,600.14,595.49,55.85,0000 0000 0000 0000 000000
2018-02-19 01:59:47,0.01,5.65,0.00,25.15,28.85,32.05,14.05,53.54,1022.95,2015.99,1707.96,1988.00,2187.00,600.09,595.50,55.90,0000 0000 0000 0000 000000
2018-02-19 02:04:49,0.05,5.65,0.00,25.14,28.85,32.05,14.03,53.62,1022.77,2015.99,1707.14,1987.84,2186.94,600.04,595.40,55.96,0000 0000 0000 0000 000000
2018-02-19 02:09:50,0.08,5.65,0.00,25.13,28.85,32.05,14.01,53.55,1022.54,2015.99,1706.57,1987.30,2186.37,600.11,595.28,56.01,0000 0000 0000 0000 000000
2018-02-19 02:14:52,0.02,5.65,0.00,25.12,28.85,32.03,14.03,53.60,1022.49,2015.99,1705.97,1987.03,2186.01,600.13,595.29,56.06,0000 0000 0000 0000 000000
2018-02-19 02:19:53,0.04,5.66,0.00,25.11,28.85,32.04,13.97,53.48,1022.48,2015.99,1705.17,1987.00,2185.97,599.96,595.27,56.11,0000 0000 0000 0000 000000
2018-02-19 02:24:54,0.04,5.66,0.00,25.10,28.85,32.03,14.07,53.63,1022.48,2015.99,1704.80,1986.98,2185.34,600.11,595.38,56.16,0000 0000 0000 0000 000000
2018-02-19 02:29:56,0.06,5.66,0.00,25.07,28.85,32.02,14.02,53.69,1022.48,2015.99,1704.05,1986.59,2185.01,600.42,595.67,56.21,0000 0000 0000 0000 000000
2018-02-19 02:34:57,0.06,5.66,0.00,25.07,28.85,32.02,14.06,53.73,1022.48,2015.98,1703.38,1986.05,2184.94,600.20,595.46,56.26,0000 0000 0000 0000 000000
2018-02-19 02:39:58,0.04,5.67,0.00,25.07,28.85,32.02,14.11,53.65,1022.47,2015.98,1702.83,1986.00,2184.31,600.35,595.73,56.31,0000 0000 0000 0000 000000
2018-02-19 02:45:00,0.03,5.67,0.00,25.05,28.84,31.99,14.01,53.68,1022.41,2015.99,1702.05,1985.99,2184.01,600.20,595.49,56.36,0000 0000 0000 0000 000000
2018-02-19 02:50:01,0.05,5.67,0.00,25.05,28.83,31.98,14.00,53.66,1022.15,2015.99,1701.30,1985.87,2183.98,599.97,595.18,56.41,0000 0000 0000 0000 000000
2018-02-19 02:55:03,0.09,5.68,0.00,25.02,28.82,31.97,14.07,53.61,1022.01,2015.99,1700.57,1985.21,2183.40,600.22,595.39,56.46,0000 0000 0000 0000 000000
2018-02-19 03:00:04,0.05,5.68,0.00,25.02,28.82,31.97,14.05,53.77,1022.00,2015.99,1699.71,1985.01,2183.02,599.81,594.85,56.51,0000 0000 0000 0000 000000
2018-02-19 03:05:05,0.02,5.68,0.00,25.01,28.82,31.96,14.03,53.67,1021.99,2015.99,1698.90,1985.00,2182.99,599.82,595.05,56.56,0000 0000 0000 0000 000000
2018-02-19 03:10:06,0.06,5.68,0.00,25.01,28.80,31.96,13.99,53.67,1021.99,2015.99,1698.00,1984.94,2182.55,599.88,595.04,56.61,0000 0000 0000 0000 000000
2018-02-19 03:15:08,0.08,5.69,0.00,24.99,28.80,31.96,14.01,53.83,1021.99,2015.99,1697.07,1984.41,2182.03,599.88,595.08,56.66,0000 0000 0000 0000 000000
2018-02-19 03:20:09,0.05,5.69,0.00,24.98,28.80,31.92,13.97,53.73,1021.99,2015.99,1696.10,1984.08,2182.00,599.57,594.82,56.71,0000 0000 0000 0000 000000
2018-02-19 03:25:11,0.05,5.69,0.00,24.97,28.79,31.93,14.05,53.82,1021.99,2015.99,1695.01,1984.03,2181.88,599.85,595.31,56.76,0000 0000 0000 0000 000000
2018-02-19 03:30:12,0.08,5.70,0.00,24.95,28.77,31.90,13.98,53.67,1021.99,2015.99,1693.92,1984.00,2181.16,600.12,595.38,56.81,0000 0000 0000 0000 000000
2018-02-19 03:35:13,0.04,5.70,0.00,24.95,28.77,31.91,14.04,53.92,1021.98,2015.99,1692.96,1983.99,2181.00,599.87,595.21,56.87,0000 0000 0000 0000 000000
2018-02-19 03:40:14,0.04,5.70,0.00,24.93,28.76,31.90,14.03,53.95,1021.98,2015.99,1692.05,1983.96,2180.87,600.07,595.42,56.92,0000 0000 0000 0000 000000
2018-02-19 03:45:16,0.08,5.71,0.00,24.92,28.75,31.88,14.02,53.97,1021.86,2015.99,1691.12,1983.66,2180.10,599.98,595.22,56.97,0000 0000 0000 0000 000000
2018-02-19 03:50:17,0.07,5.71,0.00,24.91,28.75,31.87,14.04,53.98,1021.60,2016.00,1690.16,1983.12,2180.00,600.02,595.16,57.02,0000 0000 0000 0000 000000
2018-02-19 03:55:18,0.05,5.71,0.00,24.91,28.73,31.86,14.04,53.94,1021.51,2016.00,1689.28,1983.01,2179.75,600.09,595.09,57.07,0000 0000 0000 0000 000000
2018-02-19 04:00:20,0.06,5.72,0.00,24.92,28.72,31.85,13.99,53.95,1021.51,2016.01,1688.41,1983.00,2179.06,599.95,595.07,57.12,0000 0000 0000 0000 000000
2018-02-19 04:05:21,0.04,5.72,0.00,24.92,28.72,31.85,14.01,53.94,1021.50,2016.01,1687.55,1982.97,2179.00,599.57,594.62,57.17,0000 0000 0000 0000 000000
2018-02-19 04:10:22,0.07,5.72,0.00,24.91,28.71,31.83,14.04,53.99,1021.50,2016.04,1686.74,1982.71,2178.66,600.25,595.34,57.22,0000 0000 0000 0000 000000
2018-02-19 04:15:24,0.06,5.73,0.00,24.90,28.70,31.83,14.09,53.88,1021.50,2016.05,1685.94,1982.08,2178.03,600.31,595.46,57.27,0000 0000 0000 0000 000000
2018-02-19 04:20:25,0.05,5.73,0.00,24.88,28.70,31.82,14.05,54.02,1021.49,2016.06,1685.07,1982.00,2177.97,599.79,594.93,57.32,0000 0000 0000 0000 000000
2018-02-19 04:25:26,0.09,5.73,0.00,24.87,28.68,31.80,14.05,53.94,1021.43,2016.16,1684.20,1981.98,2177.38,600.58,595.66,57.37,0000 0000 0000 0000 000000
2018-02-19 04:30:27,0.09,5.74,0.00,24.89,28.67,31.81,14.04,54.06,1021.11,2016.34,1683.47,1981.74,2177.01,600.40,595.28,57.42,0000 0000 0000 0000 000000
2018-02-19 04:35:29,0.06,5.74,0.00,24.89,28.66,31.78,14.04,54.10,1021.03,2016.42,1682.72,1981.09,2176.97,599.87,594.63,57.47,0000 0000 0000 0000 000000
2018-02-19 04:40:30,0.08,5.75,0.00,24.87,28.65,31.79,14.05,53.95,1021.03,2016.75,1681.98,1981.00,2176.29,600.02,594.79,57.52,0000 0000 0000 0000 000000
2018-02-19 04:45:31,0.08,5.75,0.00,24.85,28.65,31.78,13.99,54.02,1021.02,2016.93,1681.15,1980.97,2176.01,600.13,595.02,57.57,0000 0000 0000 0000 000000
2018-02-19 04:50:32,0.05,5.75,0.00,24.82,28.63,31.76,14.00,54.17,1021.02,2016.91,1680.73,1980.54,2175.78,599.85,594.85,57.62,0000 0000 0000 0000 000000
2018-02-19 04:55:33,0.07,5.76,0.00,24.85,28.62,31.76,14.05,54.18,1021.02,2016.95,1680.01,1980.07,2175.07,600.18,595.08,57.67,0000 0000 0000 0000 000000
2018-02-19 05:00:34,0.04,5.76,0.00,24.84,28.62,31.74,13.98,54.11,1021.01,2016.93,1679.24,1980.00,2175.00,599.92,594.90,57.72,0000 0000 0000 0000 000000
2018-02-19 05:05:35,0.03,5.76,0.00,24.84,28.60,31.74,14.10,54.25,1021.01,2016.95,1678.72,1979.97,2174.82,600.11,594.95,57.78,0000 0000 0000 0000 000000
2018-02-19 05:10:36,0.09,5.77,0.00,24.81,28.60,31.73,14.07,54.27,1021.01,2016.98,1678.00,1979.39,2174.07,600.32,595.33,57.83,0000 0000 0000 0000 000000
2018-02-19 05:15:38,0.05,5.77,0.00,24.78,28.58,31.70,14.01,54.21,1020.99,2016.99,1677.17,1979.01,2173.98,599.68,594.80,57.88,0000 0000 0000 0000 000000
2018-02-19 05:20:39,0.05,5.77,0.00,24.68,28.57,31.68,14.05,54.18,1021.01,2016.99,1676.68,1978.99,2173.52,600.09,595.41,57.93,0000 0000 0000 0000 000000
2018-02-19 05:25:40,0.03,5.77,0.00,24.63,28.56,31.66,14.07,54.13,1020.99,2016.99,1676.02,1978.90,2173.02,600.13,595.48,57.98,0000 0000 0000 0000 000000
2018-02-19 05:30:41,0.07,5.78,0.00,24.60,28.55,31.66,14.12,54.02,1020.91,2016.99,1675.46,1978.34,2172.98,600.17,595.46,58.03,0000 0000 0000 0000 000000
2018-02-19 05:35:42,0.03,5.78,0.00,24.63,28.52,31.65,14.07,54.00,1020.90,2016.99,1674.98,1978.02,2172.54,600.47,595.75,58.08,0000 0000 0000 0000 000000
2018-02-19 05:40:43,0.05,5.78,0.00,24.60,28.51,31.64,14.06,54.17,1020.95,2017.00,1674.23,1978.00,2172.04,599.98,595.34,58.13,0000 0000 0000 0000 000000
2018-02-19 05:45:45,0.01,5.78,0.00,24.55,28.50,31.63,14.09,54.08,1020.95,2017.01,1673.95,1977.98,2172.00,599.92,595.34,58.18,0000 0000 0000 0000 000000
2018-02-19 05:50:46,0.05,5.78,0.00,24.53,28.47,31.61,14.10,53.98,1020.95,2017.02,1673.14,1977.87,2171.96,600.09,595.59,58.23,0000 0000 0000 0000 000000
2018-02-19 05:55:48,0.06,5.79,0.00,24.56,28.45,31.66,14.05,54.12,1021.00,2017.07,1672.91,1977.46,2171.52,600.06,595.53,58.28,0000 0000 0000 0000 000000
2018-02-19 06:00:49,0.08,5.79,0.00,24.59,28.43,31.70,14.08,54.14,1020.98,2017.22,1672.13,1977.13,2171.13,600.31,595.63,58.33,0000 0000 0000 0000 000000
2018-02-19 06:05:50,0.07,5.79,0.00,24.60,28.41,31.81,14.02,54.18,1021.01,2017.63,1671.90,1977.04,2171.01,600.06,595.40,58.38,0000 0000 0000 0000 000000
2018-02-19 06:10:52,0.06,5.80,0.00,24.62,28.40,31.82,14.09,54.10,1021.01,2017.88,1671.09,1977.00,2170.99,600.13,595.35,58.43,0000 0000 0000 0000 000000
2018-02-19 06:15:53,0.02,5.80,0.00,24.61,28.37,31.78,14.05,54.20,1021.01,2017.97,1670.85,1976.99,2170.90,599.59,594.99,58.48,0000 0000 0000 0000 000000
2018-02-19 06:20:55,0.06,5.80,0.00,24.51,28.36,31.63,14.06,54.09,1021.01,2017.96,1670.10,1976.97,2170.26,599.86,595.45,58.53,0000 0000 0000 0000 000000
2018-02-19 06:25:56,0.03,5.80,0.00,24.44,28.34,31.52,14.01,54.21,1021.01,2017.97,1669.79,1976.78,2170.01,600.28,596.11,58.58,0000 0000 0000 0000 000000
2018-02-19 06:30:57,0.05,5.81,0.00,24.45,28.31,31.62,14.06,54.44,1020.94,2017.99,1669.04,1976.46,2170.00,600.26,595.88,58.63,0000 0000 0000 0000 000000
2018-02-19 06:35:58,0.03,5.81,0.00,24.51,28.30,31.63,14.08,54.46,1020.61,2017.99,1668.72,1976.12,2169.98,600.22,595.52,58.68,0000 0000 0000 0000 000000
2018-02-19 06:41:00,0.04,5.81,0.00,24.53,28.27,31.62,14.07,54.41,1020.56,2018.00,1668.04,1976.02,2169.75,600.27,595.50,58.74,0000 0000 0000 0000 000000
2018-02-19 06:46:01,0.05,5.81,0.00,24.53,28.25,31.65,14.08,54.40,1020.57,2018.01,1667.56,1976.00,2169.19,600.22,595.50,58.79,0000 0000 0000 0000 000000
2018-02-19 06:51:03,0.02,5.82,0.00,24.48,28.22,31.59,14.03,54.47,1020.54,2018.04,1666.96,1976.00,2169.01,600.03,595.37,58.84,0000 0000 0000 0000 000000
2018-02-19 06:56:04,0.08,5.82,0.00,24.44,28.20,31.53,14.07,54.37,1020.52,2018.32,1666.12,1976.00,2169.00,600.20,595.46,58.89,0000 0000 0000 0000 000000
2018-02-19 07:01:05,0.08,5.82,0.00,24.42,28.18,31.47,14.08,54.40,1020.52,2018.75,1665.63,1975.98,2168.99,600.37,595.79,58.94,0000 0000 0000 0000 000000
2018-02-19 07:06:07,0.04,5.83,0.00,24.39,28.16,31.39,14.07,54.57,1020.47,2018.87,1665.01,1975.94,2168.77,599.86,595.36,58.99,0000 0000 0000 0000 000000
2018-02-19 07:11:08,0.09,5.83,0.00,24.37,28.15,31.34,14.06,54.69,1020.20,2018.97,1664.31,1975.54,2168.18,600.36,595.74,59.04,0000 0000 0000 0000 000000
2018-02-19 07:16:09,0.02,5.83,0.00,24.37,28.12,31.27,14.08,54.55,1020.15,2018.99,1663.90,1975.08,2168.00,600.20,595.52,59.09,0000 0000 0000 0000 000000
2018-02-19 07:21:11,0.04,5.84,0.00,24.35,28.10,31.24,14.05,54.43,1020.17,2018.99,1663.12,1975.01,2167.99,599.86,595.25,59.14,0000 0000 0000 0000 000000
2018-02-19 07:26:12,0.05,5.84,0.00,24.30,28.08,31.21,14.05,54.63,1020.14,2018.99,1662.59,1975.00,2167.69,599.50,595.08,59.19,0000 0000 0000 0000 000000
2018-02-19 07:31:13,0.03,5.84,0.00,24.28,28.06,31.18,14.03,54.58,1020.08,2018.99,1662.00,1974.97,2167.07,599.65,595.25,59.24,0000 0000 0000 0000 000000
2018-02-19 07:36:14,0.05,5.84,0.00,24.26,28.04,31.15,14.06,54.52,1020.25,2019.00,1661.25,1974.80,2167.00,600.04,595.72,59.29,0000 0000 0000 0000 000000
2018-02-19 07:41:16,0.04,5.84,0.00,24.23,28.02,31.13,14.11,54.49,1020.25,2019.03,1660.85,1974.24,2166.96,600.17,595.90,59.34,0000 0000 0000 0000 000000
2018-02-19 07:46:17,0.06,5.85,0.00,24.18,28.00,31.09,14.03,54.43,1020.21,2019.04,1660.08,1974.03,2166.42,599.84,595.61,59.39,0000 0000 0000 0000 000000
2018-02-19 07:51:18,0.05,5.85,0.00,24.16,27.99,31.10,14.02,54.45,1020.17,2019.13,1659.68,1974.00,2166.04,599.87,595.68,59.44,0000 0000 0000 0000 000000
2018-02-19 07:56:19,0.02,5.85,0.00,24.15,27.97,31.08,14.09,54.58,1020.24,2019.20,1659.01,1974.00,2166.00,600.01,595.80,59.49,0000 0000 0000 0000 000000
2018-02-19 08:01:21,0.09,5.86,0.00,24.11,27.95,31.09,14.03,54.47,1020.16,2019.51,1658.33,1973.99,2165.98,600.22,595.98,59.54,0000 0000 0000 0000 000000
2018-02-19 08:06:22,0.06,5.86,0.00,24.09,27.93,31.06,14.09,54.48,1020.10,2019.85,1657.90,1973.97,2165.73,600.26,596.14,59.59,0000 0000 0000 0000 000000
2018-02-19 08:11:24,0.06,5.86,0.00,24.07,27.91,31.05,14.01,54.48,1020.32,2019.94,1657.12,1973.91,2165.19,599.67,595.69,59.65,0000 0000 0000 0000 000000
2018-02-19 08:16:25,0.06,5.87,0.00,24.04,27.90,31.06,14.04,54.62,1020.23,2019.98,1656.56,1973.43,2165.01,600.06,596.16,59.70,0000 0000 0000 0000 000000
2018-02-19 08:21:26,0.03,5.87,0.00,24.03,27.87,31.03,14.09,54.63,1020.20,2019.99,1656.00,1973.14,2165.00,600.06,596.12,59.75,0000 0000 0000 0000 000000
2018-02-19 08:26:27,0.04,5.87,0.00,24.01,27.86,31.01,14.05,54.58,1020.24,2019.99,1655.42,1973.03,2164.99,599.83,596.00,59.80,0000 0000 0000 0000 000000
2018-02-19 08:31:28,0.02,5.87,0.00,23.98,27.84,31.00,14.06,54.73,1020.11,2019.99,1654.91,1973.00,2164.72,599.77,595.86,59.85,0000 0000 0000 0000 000000
2018-02-19 08:36:29,0.05,5.88,0.00,24.00,27.82,30.98,14.08,54.63,1020.13,2019.99,1654.12,1973.00,2164.16,600.13,596.28,59.90,0000 0000 0000 0000 000000
2018-02-19 08:41:31,0.02,5.88,0.00,23.97,27.81,30.96,14.01,54.70,1020.06,2020.02,1653.80,1973.00,2164.02,599.93,596.06,59.95,0000 0000 0000 0000 000000
2018-02-19 08:46:32,0.03,5.88,0.00,23.94,27.79,30.95,14.12,54.70,1020.06,2020.03,1653.06,1972.98,2164.00,600.20,596.28,60.00,0000 0000 0000 0000 000000
2018-02-19 08:51:33,0.04,5.88,0.00,23.92,27.77,30.92,14.04,54.67,1020.05,2020.07,1652.55,1972.98,2163.99,599.94,596.13,60.05,0000 0000 0000 0000 000000
2018-02-19 08:56:35,0.04,5.88,0.00,23.89,27.75,30.92,13.99,54.70,1020.04,2020.18,1651.96,1972.80,2163.82,600.16,596.45,60.10,0000 0000 0000 0000 000000
2018-02-19 09:01:36,0.18,2.35,0.00,23.88,27.76,30.90,12.30,44.89,1020.03,2022.86,2724.88,2644.30,2997.48,533.32,531.23,0.02,0000 0000 0000 0000 000002
2018-02-19 09:06:37,0.18,0.00,0.00,23.86,27.74,30.90,14.01,49.10,1020.03,2024.57,3433.72,3088.06,3549.39,599.86,596.18,0.04,0000 0000 0000 0000 000000
2018-02-19 09:11:39,0.17,0.00,0.00,23.85,27.71,30.84,14.05,49.00,1020.03,2024.72,3431.13,3086.91,3547.30,600.29,596.59,0.09,0000 0000 0000 0000 000000
2018-02-19 09:16:40,0.15,0.01,0.00,23.85,27.69,30.82,14.13,48.89,1020.04,2024.93,3429.52,3086.11,3545.93,600.23,596.59,0.14,0000 0000 0000 0000 000000
2018-02-19 09:21:41,0.12,0.01,0.00,23.84,27.67,30.81,14.00,48.74,1020.04,2024.98,3427.93,3085.79,3544.73,600.03,596.38,0.19,0000 0000 0000 0000 000000
2018-02-19 09:26:42,0.08,0.02,0.00,23.81,27.65,30.81,13.91,48.63,1020.05,2024.98,3426.36,3085.02,3543.42,599.58,596.05,0.24,0000 0000 0000 0000 000000
2018-02-19 09:31:44,0.07,0.02,0.00,23.80,27.63,30.79,13.98,48.69,1020.04,2024.99,3424.81,3084.27,3542.12,599.87,596.29,0.29,0000 0000 0000 0000 000000
2018-02-19 09:36:45,0.04,0.02,0.00,23.80,27.61,30.75,14.06,48.59,1020.03,2024.99,3423.49,3083.95,3541.02,599.97,596.37,0.34,0000 0000 0000 0000 000000
2018-02-19 09:41:46,0.06,0.02,0.00,23.79,27.60,30.74,14.03,48.58,1020.02,2024.99,3422.00,3083.15,3539.88,600.23,596.67,0.39,0000 0000 0000 0000 000000
2018-02-19 09:46:48,0.05,0.03,0.00,23.77,27.57,30.73,14.01,48.56,1019.85,2024.99,3420.56,3082.76,3538.68,599.72,596.17,0.44,0000 0000 0000 0000 000000
2018-02-19 09:51:49,0.05,0.03,0.00,23.77,27.56,30.69,13.94,48.56,1019.63,2025.00,3419.17,3082.04,3537.52,599.75,596.00,0.49,0000 0000 0000 0000 000000
2018-02-19 09:56:50,0.06,0.03,0.00,23.75,27.54,30.68,13.84,48.54,1019.57,2025.01,3417.71,3081.53,3536.48,599.46,595.76,0.54,0000 0000 0000 0000 000000
2018-02-19 10:01:52,0.04,0.03,0.00,23.73,27.52,30.66,13.97,48.58,1019.56,2025.05,3416.46,3081.01,3535.50,599.90,596.09,0.59,0000 0000 0000 0000 000000
2018-02-19 10:06:53,0.06,0.04,0.00,23.72,27.50,30.64,14.01,48.56,1019.55,2025.09,3415.04,3080.48,3534.37,600.15,596.43,0.64,0000 0000 0000 0000 000000
2018-02-19 10:11:54,0.07,0.04,0.00,23.71,27.49,30.64,14.07,48.67,1019.55,2025.29,3413.66,3079.98,3533.23,600.43,596.77,0.69,0000 0000 0000 0000 000000
2018-02-19 10:16:55,0.08,0.05,0.00,23.69,27.47,30.63,14.11,48.75,1019.55,2025.63,3412.42,3079.39,3532.22,600.14,596.51,0.74,0000 0000 0000 0000 000000
2018-02-19 10:21:57,0.04,0.05,0.00,23.67,27.45,30.61,13.97,48.63,1019.55,2025.78,3411.05,3078.96,3531.12,600.00,596.45,0.79,0000 0000 0000 0000 000000
2018-02-19 10:26:58,0.07,0.05,0.00,23.66,27.43,30.57,14.01,48.66,1019.55,2025.87,3409.74,3078.16,3530.07,600.11,596.50,0.84,0000 0000 0000 0000 000000
2018-02-19 10:31:59,0.04,0.05,0.00,23.65,27.42,30.55,13.95,48.63,1019.51,2025.98,3408.58,3077.98,3529.11,599.93,596.40,0.89,0000 0000 0000 0000 000000
2018-02-19 10:37:00,0.05,0.06,0.00,23.62,27.40,30.55,13.91,48.58,1019.41,2025.99,3407.34,3077.31,3528.09,599.81,596.23,0.94,0000 0000 0000 0000 000000
2018-02-19 10:42:02,0.03,0.06,0.00,23.59,27.38,30.52,14.03,48.62,1019.49,2025.99,3406.01,3076.95,3527.05,600.15,596.69,0.99,0000 0000 0000 0000 000000
2018-02-19 10:47:03,0.06,0.06,0.00,23.58,27.37,30.53,14.04,48.64,1019.42,2025.99,3404.69,3076.19,3525.99,599.86,596.31,1.04,0000 0000 0000 0000 000000
2018-02-19 10:52:04,0.04,0.06,0.00,23.56,27.35,30.48,13.95,48.63,1019.33,2025.99,3403.39,3075.87,3524.92,599.73,596.25,1.09,0000 0000 0000 0000 000000
2018-02-19 10:57:05,0.05,0.07,0.00,23.54,27.33,30.49,14.04,48.57,1019.23,2025.99,3402.12,3075.08,3523.89,599.95,596.38,1.14,0000 0000 0000 0000 000000
2018-02-19 11:02:07,0.05,0.07,0.00,23.51,27.32,30.46,14.02,48.58,1019.18,2026.00,3400.76,3074.71,3522.85,600.10,596.64,1.19,0000 0000 0000 0000 000000
2018-02-19 11:07:08,0.04,0.07,0.00,23.54,27.30,30.44,14.03,48.64,1019.07,2026.03,3399.48,3074.03,3521.90,600.20,596.54,1.24,0000 0000 0000 0000 000000
2018-02-19 11:12:09,0.05,0.07,0.00,23.51,27.28,30.45,14.08,48.73,1019.07,2026.10,3398.26,3073.67,3520.87,600.25,596.69,1.29,0000 0000 0000 0000 000000
2018-02-19 11:17:10,0.04,0.08,0.00,23.50,27.26,30.44,13.95,48.68,1019.06,2026.14,3396.94,3073.02,3519.92,599.89,596.43,1.35,0000 0000 0000 0000 000000
2018-02-19 11:22:12,0.07,0.08,0.00,23.50,27.25,30.39,13.96,48.62,1019.07,2026.32,3395.75,3072.58,3519.01,599.77,596.28,1.40,0000 0000 0000 0000 000000
2018-02-19 11:27:13,0.06,0.08,0.00,23.48,27.23,30.38,13.99,48.63,1019.07,2026.47,3394.44,3072.01,3518.02,599.93,596.50,1.45,0000 0000 0000 0000 000000
2018-02-19 11:32:14,0.07,0.09,0.00,23.47,27.21,30.40,13.93,48.64,1019.07,2026.65,3393.20,3071.31,3516.97,599.92,596.49,1.50,0000 0000 0000 0000 000000
2018-02-19 11:37:16,0.04,0.09,0.00,23.45,27.20,30.35,13.97,48.64,1019.07,2026.85,3391.92,3070.99,3515.99,599.66,596.16,1.55,0000 0000 0000 0000 000000
2018-02-19 11:42:17,0.07,0.09,0.00,23.44,27.18,30.35,13.99,48.63,1019.06,2026.96,3390.80,3070.36,3515.00,600.14,596.65,1.60,0000 0000 0000 0000 000000
2018-02-19 11:47:18,0.03,0.10,0.00,23.41,27.16,30.33,14.10,48.73,1019.06,2026.97,3389.60,3069.96,3513.99,600.27,596.92,1.65,0000 0000 0000 0000 000000
2018-02-19 11:52:20,0.05,0.10,0.00,23.42,27.15,30.31,13.96,48.62,1019.06,2026.97,3388.44,3069.20,3513.04,599.77,596.42,1.70,0000 0000 0000 0000 000000
2018-02-19 11:57:21,0.03,0.10,0.00,23.41,27.13,30.31,13.96,48.66,1019.03,2026.98,3387.21,3068.93,3512.08,599.94,596.56,1.75,0000 0000 0000 0000 000000
2018-02-19 12:02:22,0.05,0.10,0.00,23.39,27.12,30.28,14.01,48.78,1019.02,2026.99,3385.90,3068.12,3511.17,600.13,596.69,1.80,0000 0000 0000 0000 000000
2018-02-19 12:07:23,0.05,0.11,0.00,23.38,27.10,30.26,14.06,48.71,1018.86,2026.99,3384.64,3067.76,3510.17,599.96,596.59,1.85,0000 0000 0000 0000 000000
2018-02-19 12:12:25,0.04,0.11,0.00,23.38,27.10,30.25,13.99,48.75,1018.62,2026.99,3383.48,3067.05,3509.24,600.00,596.42,1.90,0000 0000 0000 0000 000000
2018-02-19 12:17:26,0.05,0.11,0.00,23.39,27.07,30.23,14.08,48.73,1018.63,2027.00,3382.23,3066.59,3508.26,600.39,596.78,1.95,0000 0000 0000 0000 000000
2018-02-19 12:22:28,0.04,0.11,0.00,23.38,27.06,30.23,14.01,48.75,1018.68,2027.02,3380.86,3066.00,3507.30,600.07,596.59,2.00,0000 0000 0000 0000 000000
2018-02-19 12:27:29,0.06,0.12,0.00,23.37,27.05,30.20,13.94,48.75,1018.62,2027.04,3379.56,3065.29,3506.26,600.01,596.41,2.05,0000 0000 0000 0000 000000
2018-02-19 12:32:30,0.05,0.12,0.00,23.34,27.03,30.19,14.04,48.73,1018.60,2027.18,3378.37,3064.90,3505.33,600.10,596.61,2.10,0000 0000 0000 0000 000000
2018-02-19 12:37:32,0.05,0.12,0.00,23.33,27.02,30.19,14.00,48.67,1018.58,2027.13,3377.01,3064.08,3504.23,600.14,596.55,2.15,0000 0000 0000 0000 000000
2018-02-19 12:42:33,0.06,0.12,0.00,23.32,27.01,30.17,13.94,48.69,1018.57,2027.30,3375.82,3063.63,3503.35,599.87,596.41,2.20,0000 0000 0000 0000 000000
2018-02-19 12:47:34,0.09,0.13,0.00,23.31,27.00,30.15,14.07,48.62,1018.58,2027.54,3374.60,3063.00,3502.18,599.98,596.61,2.25,0000 0000 0000 0000 000000
2018-02-19 12:52:35,0.06,0.13,0.00,23.30,26.99,30.14,13.98,48.73,1018.57,2027.82,3373.31,3062.30,3501.20,599.99,596.57,2.30,0000 0000 0000 0000 000000
2018-02-19 12:57:36,0.04,0.14,0.00,23.28,26.97,30.16,13.97,48.76,1018.57,2027.91,3372.08,3061.85,3500.21,599.76,596.43,2.35,0000 0000 0000 0000 000000